Change the Weather History Date:

Thursday, February 21, 2013

  Actual Average Record
Temperature  
Mean Temperature 23 °F -  
Max Temperature 26 °F 39 °F 65 °F (1983)
Min Temperature 20 °F 20 °F -10 °F (1968)
Degree Days  
Heating Degree Days 42    
Moisture  
Dew Point 16 °F    
Average Humidity 75    
Maximum Humidity 78    
Minimum Humidity 71    
Precipitation  
Precipitation 0.00 in - - ()
Sea Level Pressure  
Sea Level Pressure 30.28 in    
Wind  
Wind Speed 7 mph (NE)    
Max Wind Speed 18 mph    
Max Gust Speed 23 mph    
Visibility 10 miles    
Events Snow    
Averages and records for this station are not official NWS values.
T = Trace of Precipitation, MM = Missing Value Source: NWS Daily Summary

Daily Weather History Graph

Daily Weather History Graph

Search for Another Location

Airport or City:

Trip Planner

Search our weather history database for the weather conditions in past years. The results will help you decide how hot, cold, wet, or windy it might be!

Date:

Astronomy

Feb. 21, 2013 Rise Set
Actual Time 7:29 AM EST 6:23 PM EST
Civil Twilight 7:01 AM EST 6:51 PM EST
Nautical Twilight 6:28 AM EST 7:23 PM EST
Astronomical Twilight 5:56 AM EST 7:56 PM EST
Moon 2:34 PM EST (2/21) 4:36 AM EST (2/21)
Length of Visible Light 11h 50m
Length of Day
10h 53m
Waxing Gibbous, 83% of the Moon is Illuminated
Feb 21
Waxing Gibbous
Feb 25
Full
Mar 4
Last Quarter
Mar 11
New
Mar 19
First Quarter

Hourly Weather History & Observations

Time (EST) Temp. Windchill Dew Point Humidity Pressure Visibility Wind Dir Wind Speed Gust Speed Precip Events Conditions
12:15 AM 21.6 °F 13.0 °F 14.2 °F 73% 30.29 in 10.0 mi NNW 6.9 mph - N/A Snow Light Snow
12:34 AM 21.4 °F 12.8 °F 14.2 °F 74% 30.28 in 10.0 mi NNW 6.9 mph - N/A Snow Light Snow
12:55 AM 21.4 °F 13.8 °F 14.2 °F 74% 30.29 in 10.0 mi NNW 5.8 mph - N/A Snow Light Snow
1:15 AM 21.6 °F 11.3 °F 14.2 °F 73% 30.29 in 10.0 mi NNW 9.2 mph - N/A Snow Light Snow
1:34 AM 21.4 °F 15.1 °F 14.2 °F 74% 30.30 in 10.0 mi North 4.6 mph - N/A   Overcast
1:55 AM 21.2 °F 12.6 °F 14.2 °F 74% 30.30 in 10.0 mi NNW 6.9 mph - N/A   Overcast
1:59 AM 21.2 °F 13.6 °F 14.4 °F 75% 30.30 in 10.0 mi NNW 5.8 mph - N/A Snow Light Snow
2:50 AM 20.7 °F 10.2 °F 13.8 °F 75% 30.30 in 10.0 mi NNW 9.2 mph - N/A   Overcast
2:53 AM 20.7 °F 11.0 °F 13.8 °F 75% 30.30 in 10.0 mi NNW 8.1 mph - N/A   Overcast
3:15 AM 20.3 °F 10.6 °F 13.6 °F 75% 30.30 in 10.0 mi North 8.1 mph - N/A Snow Light Snow
3:35 AM 20.3 °F 10.6 °F 13.5 °F 75% 30.30 in 10.0 mi North 8.1 mph - N/A   Overcast
3:54 AM 20.3 °F 12.5 °F 13.6 °F 75% 30.30 in 10.0 mi NNW 5.8 mph - N/A   Overcast
4:15 AM 20.3 °F 15.4 °F 13.8 °F 76% 30.30 in 10.0 mi North 3.5 mph - N/A   Overcast
4:35 AM 20.3 °F 12.5 °F 14.0 °F 77% 30.30 in 10.0 mi NNW 5.8 mph - N/A   Overcast
4:54 AM 20.3 °F 12.5 °F 14.0 °F 77% 30.30 in 10.0 mi North 5.8 mph - N/A   Overcast
5:15 AM 20.3 °F 12.5 °F 14.0 °F 77% 30.31 in 10.0 mi North 5.8 mph - N/A   Overcast
5:34 AM 20.3 °F - 14.0 °F 77% 30.30 in 10.0 mi Calm Calm - N/A   Overcast
5:54 AM 20.3 °F 13.8 °F 14.0 °F 77% 30.31 in 10.0 mi North 4.6 mph - N/A   Overcast
6:15 AM 20.3 °F 15.4 °F 14.2 °F 77% 30.32 in 10.0 mi North 3.5 mph - N/A   Overcast
6:55 AM 20.7 °F 14.2 °F 14.4 °F 77% 30.33 in 10.0 mi North 4.6 mph - N/A   Overcast
7:15 AM 20.8 °F 13.2 °F 14.5 °F 77% 30.34 in 10.0 mi North 5.8 mph - N/A   Overcast
7:34 AM 20.7 °F 13.0 °F 14.5 °F 77% 30.32 in 10.0 mi North 5.8 mph - N/A   Overcast
7:55 AM 20.8 °F 13.2 °F 14.7 °F 77% 30.33 in 10.0 mi North 5.8 mph - N/A   Overcast
8:15 AM 21.0 °F - 15.1 °F 78% 30.32 in 10.0 mi Calm Calm - N/A   Overcast
8:34 AM 21.2 °F 14.9 °F 15.3 °F 78% 30.32 in 10.0 mi NE 4.6 mph - N/A   Overcast
8:55 AM 21.2 °F 14.9 °F 15.4 °F 78% 30.33 in 10.0 mi NNE 4.6 mph - N/A   Overcast
9:15 AM 21.6 °F 13.0 °F 15.4 °F 77% 30.33 in 10.0 mi NE 6.9 mph - N/A   Overcast
9:34 AM 21.7 °F 14.3 °F 15.6 °F 77% 30.34 in 10.0 mi North 5.8 mph - N/A   Overcast
9:55 AM 21.9 °F 17.2 °F 15.6 °F 77% 30.35 in 10.0 mi North 3.5 mph - N/A   Overcast
10:15 AM 22.1 °F 15.9 °F 15.8 °F 77% 30.34 in 10.0 mi NE 4.6 mph - N/A   Overcast
10:34 AM 22.1 °F 17.4 °F 15.6 °F 76% 30.34 in 10.0 mi ENE 3.5 mph - N/A   Overcast
10:55 AM 22.6 °F 15.3 °F 15.8 °F 75% 30.33 in 10.0 mi NE 5.8 mph - N/A   Overcast
11:14 AM 23.0 °F 18.4 °F 16.3 °F 76% 30.33 in 10.0 mi East 3.5 mph - N/A   Overcast
11:34 AM 23.0 °F 13.9 °F 16.2 °F 75% 30.32 in 10.0 mi East 8.1 mph - N/A   Overcast
11:55 AM 23.7 °F 17.8 °F 16.5 °F 74% 30.33 in 10.0 mi East 4.6 mph - N/A   Overcast
12:14 PM 23.7 °F - 16.0 °F 72% 30.36 in 10.0 mi Calm Calm - N/A   Overcast
12:35 PM 23.9 °F 19.5 °F 16.3 °F 73% 30.35 in 10.0 mi ENE 3.5 mph - N/A   Overcast
12:55 PM 23.9 °F - 16.5 °F 73% 30.34 in 10.0 mi Calm Calm - N/A   Overcast
1:14 PM 24.6 °F 15.8 °F 16.9 °F 72% 30.31 in 10.0 mi East 8.1 mph - N/A   Overcast
1:35 PM 24.6 °F 17.7 °F 16.7 °F 72% 30.30 in 10.0 mi ENE 5.8 mph - N/A   Overcast
1:55 PM 24.8 °F 16.1 °F 17.2 °F 73% 30.30 in 10.0 mi ENE 8.1 mph - N/A   Overcast
2:14 PM 24.8 °F 15.3 °F 17.4 °F 74% 30.28 in 10.0 mi ENE 9.2 mph - N/A   Overcast
2:35 PM 25.3 °F 16.7 °F 17.6 °F 72% 30.27 in 10.0 mi ENE 8.1 mph - N/A   Overcast
2:55 PM 25.5 °F 14.9 °F 18.0 °F 73% 30.23 in 10.0 mi East 11.5 mph - N/A   Overcast
3:14 PM 25.7 °F 18.0 °F 17.6 °F 71% 30.24 in 10.0 mi ESE 6.9 mph - N/A   Overcast
3:54 PM 25.7 °F 17.1 °F 18.0 °F 73% 30.24 in 10.0 mi East 8.1 mph - N/A   Overcast
4:15 PM 26.1 °F 16.8 °F 18.3 °F 73% 30.27 in 10.0 mi East 9.2 mph - N/A   Overcast
4:35 PM 26.1 °F 17.6 °F 18.1 °F 72% 30.27 in 10.0 mi East 8.1 mph - N/A   Overcast
4:54 PM 26.2 °F 16.4 °F 18.3 °F 72% 30.26 in 10.0 mi East 10.4 mph - N/A   Overcast
5:15 PM 26.2 °F 17.1 °F 18.5 °F 73% 30.25 in 10.0 mi ENE 9.2 mph - N/A   Overcast
5:34 PM 26.1 °F 15.6 °F 18.5 °F 73% 30.26 in 10.0 mi East 11.5 mph - N/A   Overcast
5:55 PM 26.1 °F 16.2 °F 18.5 °F 73% 30.26 in 10.0 mi East 10.4 mph - N/A   Overcast
6:15 PM 25.9 °F 16.6 °F 18.5 °F 74% 30.25 in 10.0 mi East 9.2 mph - N/A   Overcast
6:34 PM 25.7 °F 15.7 °F 18.5 °F 74% 30.24 in 10.0 mi East 10.4 mph - N/A   Overcast
6:55 PM 25.7 °F 15.1 °F 18.5 °F 74% 30.24 in 10.0 mi East 11.5 mph - N/A   Overcast
7:15 PM 26.2 °F 17.8 °F 18.9 °F 74% 30.24 in 10.0 mi ESE 8.1 mph - N/A   Overcast
7:34 PM 26.1 °F 16.2 °F 18.3 °F 73% 30.25 in 10.0 mi ESE 10.4 mph - N/A   Overcast
7:55 PM 25.7 °F 13.5 °F 17.6 °F 71% 30.24 in 10.0 mi ESE 15.0 mph - N/A   Overcast
8:15 PM 25.2 °F 12.4 °F 17.6 °F 73% 30.22 in 10.0 mi ESE 16.1 mph 20.7 mph N/A   Overcast
8:34 PM 24.8 °F 14.0 °F 17.2 °F 73% 30.22 in 10.0 mi East 11.5 mph - N/A   Mostly Cloudy
8:55 PM 24.3 °F 11.7 °F 16.7 °F 73% 30.21 in 10.0 mi East 15.0 mph - N/A   Scattered Clouds
9:15 PM 23.9 °F 10.8 °F 16.7 °F 74% 30.19 in 10.0 mi East 16.1 mph 20.7 mph N/A   Scattered Clouds
9:34 PM 23.7 °F 12.6 °F 16.3 °F 73% 30.19 in 10.0 mi ESE 11.5 mph - N/A   Scattered Clouds
9:55 PM 23.0 °F 10.1 °F 16.0 °F 74% 30.19 in 10.0 mi ESE 15.0 mph 20.7 mph N/A   Mostly Cloudy
10:14 PM 22.5 °F 9.9 °F 15.3 °F 74% 30.19 in 10.0 mi East 13.8 mph 21.9 mph N/A   Overcast
10:35 PM 22.1 °F 7.6 °F 14.5 °F 73% 30.18 in 10.0 mi ESE 18.4 mph 23.0 mph N/A   Overcast
10:55 PM 21.9 °F 9.8 °F 14.7 °F 74% 30.18 in 10.0 mi ESE 12.7 mph - N/A   Mostly Cloudy
11:14 PM 21.7 °F 8.5 °F 14.9 °F 75% 30.17 in 10.0 mi ESE 15.0 mph 21.9 mph N/A   Mostly Cloudy
11:35 PM 21.2 °F 8.3 °F 14.9 °F 77% 30.15 in 10.0 mi ESE 13.8 mph 21.9 mph N/A   Overcast
11:54 PM 21.2 °F 8.9 °F 14.9 °F 77% 30.13 in 10.0 mi ESE 12.7 mph 20.7 mph N/A   Overcast